When you browse on this site, cookies collect data to enhance your experience and personalize the content and advertising you see.
Visit our Privacy Policy to learn more. By continuing to use the site, you agree to this use of cookies and data.
  • In Österreich
  • Länderverzeichnis
  • Für 7 Tage
  • Wassertemperatur
  • Satellitenkarten
  • Wetterkarte
  • News
  • Widgets
  • user-avatar
    Anmelden

    Stündliche Wetter Pezlevo

    Heute, 20 November, Dienstag

    Zeit Temperatur Niederschläge Wind Luftdruck Luftfeuchtigkeit
    00:00 -6°C° 0 mm 2 m/S 762 mmHg 82%
    01:00 -6°C° 0 mm 2 m/S 761 mmHg 82%
    02:00 -3°C° 0 mm 1 m/S 761 mmHg 81%
    03:00 -4°C° 0 mm 1 m/S 761 mmHg 81%
    04:00 -4°C° 0 mm 1 m/S 760 mmHg 80%
    05:00 -6°C° 0 mm 2 m/S 760 mmHg 80%
    06:00 -6°C° 0 mm 2 m/S 760 mmHg 79%
    07:00 -6°C° 0 mm 2 m/S 759 mmHg 79%
    08:00 -6°C° 0 mm 2 m/S 759 mmHg 78%
    09:00 -5°C° 0 mm 2 m/S 759 mmHg 75%
    10:00 -5°C° 0 mm 2 m/S 758 mmHg 72%
    11:00 -4°C° 0 mm 2 m/S 758 mmHg 69%
    12:00 -4°C° 0 mm 2 m/S 757 mmHg 69%
    13:00 -4°C° 0 mm 3 m/S 757 mmHg 69%
    14:00 -4°C° 0 mm 3 m/S 756 mmHg 69%
    15:00 -4°C° 0 mm 3 m/S 756 mmHg 71%
    16:00 -4°C° 0 mm 4 m/S 755 mmHg 73%
    17:00 -5°C° 0 mm 4 m/S 755 mmHg 75%
    18:00 -5°C° 0 mm 4 m/S 755 mmHg 77%
    19:00 -5°C° 0 mm 4 m/S 754 mmHg 78%
    20:00 -5°C° 0 mm 4 m/S 754 mmHg 80%
    21:00 -5°C° 0 mm 4 m/S 754 mmHg 82%
    22:00 -5°C° 0 mm 4 m/S 754 mmHg 84%
    23:00 -4°C° 0 mm 4 m/S 754 mmHg 86%

    Morgen, 21 November, Mittwoch

    Zeit Temperatur Niederschläge Wind Luftdruck Luftfeuchtigkeit
    00:00 -4°C° 0 mm 4 m/S 754 mmHg 86%
    01:00 -4°C° 0 mm 4 m/S 754 mmHg 86%
    02:00 -3°C° 0 mm 4 m/S 754 mmHg 87%
    03:00 -3°C° 0 mm 4 m/S 754 mmHg 87%
    04:00 -3°C° 0 mm 4 m/S 754 mmHg 87%
    05:00 -3°C° 0 mm 4 m/S 755 mmHg 87%
    06:00 -4°C° 0 mm 4 m/S 755 mmHg 88%
    07:00 -4°C° 0 mm 3 m/S 755 mmHg 88%
    08:00 -4°C° 0 mm 3 m/S 755 mmHg 88%
    09:00 -4°C° 0 mm 3 m/S 755 mmHg 84%
    10:00 -2°C° 0 mm 3 m/S 755 mmHg 80%
    11:00 -2°C° 0 mm 3 m/S 756 mmHg 76%
    12:00 -2°C° 0 mm 3 m/S 756 mmHg 78%
    13:00 -2°C° 0 mm 3 m/S 755 mmHg 80%
    14:00 -2°C° 0 mm 3 m/S 755 mmHg 82%
    15:00 -4°C° 0 mm 3 m/S 755 mmHg 85%
    16:00 -4°C° 0 mm 3 m/S 755 mmHg 87%
    17:00 -5°C° 0 mm 4 m/S 755 mmHg 89%
    18:00 -5°C° 0 mm 4 m/S 754 mmHg 86%
    19:00 -5°C° 0 mm 4 m/S 754 mmHg 84%
    20:00 -7°C° 0 mm 4 m/S 754 mmHg 82%
    21:00 -7°C° 0 mm 4 m/S 754 mmHg 83%
    22:00 -7°C° 0 mm 4 m/S 753 mmHg 83%
    23:00 -6°C° 0 mm 3 m/S 753 mmHg 84%

    übermorgen, 22 November, Donnerstag

    Zeit Temperatur Niederschläge Wind Luftdruck Luftfeuchtigkeit
    00:00 -5°C° 0 mm 4 m/S 753 mmHg 84%
    01:00 -5°C° 0 mm 4 m/S 752 mmHg 85%
    02:00 -5°C° 0 mm 4 m/S 752 mmHg 85%
    03:00 -4°C° 0 mm 4 m/S 751 mmHg 85%
    04:00 -4°C° 0 mm 4 m/S 751 mmHg 86%
    05:00 -4°C° 0 mm 5 m/S 750 mmHg 86%
    06:00 -5°C° 0 mm 5 m/S 750 mmHg 85%
    07:00 -5°C° 0 mm 5 m/S 749 mmHg 84%
    08:00 -5°C° 0 mm 5 m/S 749 mmHg 82%
    09:00 -4°C° 0 mm 6 m/S 748 mmHg 81%
    10:00 -4°C° 0 mm 6 m/S 748 mmHg 79%
    11:00 -4°C° 0 mm 6 m/S 748 mmHg 78%
    12:00 -3°C° 0.1 mm 6 m/S 747 mmHg 78%
    13:00 -3°C° 0.1 mm 6 m/S 747 mmHg 79%
    14:00 -3°C° 0.1 mm 6 m/S 747 mmHg 79%
    15:00 -2°C° 0.1 mm 6 m/S 747 mmHg 79%
    16:00 -2°C° 0.1 mm 6 m/S 746 mmHg 80%
    17:00 -2°C° 0.1 mm 6 m/S 746 mmHg 80%
    18:00 -3°C° 0 mm 6 m/S 747 mmHg 79%
    19:00 -3°C° 0 mm 6 m/S 747 mmHg 79%
    20:00 -3°C° 0 mm 6 m/S 747 mmHg 78%
    21:00 -4°C° 0.1 mm 5 m/S 748 mmHg 77%
    22:00 -4°C° 0.1 mm 5 m/S 748 mmHg 76%
    23:00 -4°C° 0.1 mm 5 m/S 749 mmHg 75%

    23 November, Freitag

    Zeit Temperatur Niederschläge Wind Luftdruck Luftfeuchtigkeit
    00:00 -4°C° 0 mm 5 m/S 750 mmHg 75%
    01:00 -4°C° 0 mm 4 m/S 750 mmHg 75%
    02:00 -4°C° 0 mm 4 m/S 751 mmHg 75%
    03:00 -5°C° 0 mm 4 m/S 752 mmHg 76%
    04:00 -5°C° 0 mm 4 m/S 752 mmHg 77%
    05:00 -5°C° 0 mm 4 m/S 753 mmHg 78%
    06:00 -6°C° 0 mm 3 m/S 753 mmHg 79%
    07:00 -6°C° 0 mm 3 m/S 754 mmHg 81%
    08:00 -6°C° 0 mm 3 m/S 755 mmHg 82%
    09:00 -6°C° 0 mm 3 m/S 755 mmHg 79%
    10:00 -4°C° 0 mm 2 m/S 755 mmHg 76%
    11:00 -3°C° 0 mm 2 m/S 756 mmHg 73%
    12:00 -3°C° 0 mm 2 m/S 755 mmHg 73%
    13:00 -3°C° 0 mm 2 m/S 755 mmHg 74%
    14:00 -3°C° 0 mm 2 m/S 755 mmHg 74%
    15:00 -4°C° 0 mm 2 m/S 755 mmHg 77%
    16:00 -5°C° 0 mm 3 m/S 755 mmHg 80%
    17:00 -6°C° 0 mm 3 m/S 755 mmHg 83%
    18:00 -6°C° 0 mm 3 m/S 754 mmHg 84%
    19:00 -6°C° 0 mm 3 m/S 754 mmHg 86%
    20:00 -6°C° 0 mm 3 m/S 754 mmHg 87%
    21:00 -5°C° 0 mm 3 m/S 753 mmHg 87%
    22:00 -5°C° 0 mm 4 m/S 753 mmHg 86%
    23:00 -4°C° 0 mm 4 m/S 752 mmHg 86%

    24 November, Samstag

    Zeit Temperatur Niederschläge Wind Luftdruck Luftfeuchtigkeit
    00:00 -4°C° 0 mm 4 m/S 752 mmHg 84%
    01:00 -4°C° 0 mm 4 m/S 751 mmHg 83%
    02:00 -4°C° 0 mm 5 m/S 751 mmHg 82%
    03:00 -4°C° 0.1 mm 5 m/S 750 mmHg 82%
    04:00 -4°C° 0.1 mm 5 m/S 749 mmHg 81%
    05:00 -4°C° 0.1 mm 5 m/S 749 mmHg 81%
    06:00 -4°C° 0.1 mm 5 m/S 748 mmHg 80%
    07:00 -4°C° 0.1 mm 5 m/S 748 mmHg 79%
    08:00 -4°C° 0.1 mm 5 m/S 747 mmHg 78%
    09:00 -4°C° 0 mm 5 m/S 747 mmHg 77%
    10:00 -4°C° 0 mm 5 m/S 746 mmHg 76%
    11:00 -4°C° 0 mm 5 m/S 746 mmHg 75%
    12:00 -4°C° 0 mm 5 m/S 746 mmHg 75%
    13:00 -4°C° 0 mm 5 m/S 745 mmHg 75%
    14:00 -4°C° 0 mm 5 m/S 745 mmHg 75%
    15:00 -4°C° 0 mm 5 m/S 745 mmHg 76%
    16:00 -4°C° 0 mm 5 m/S 745 mmHg 77%
    17:00 -4°C° 0 mm 5 m/S 744 mmHg 79%
    18:00 -4°C° 0 mm 5 m/S 745 mmHg 80%
    19:00 -3°C° 0 mm 4 m/S 745 mmHg 82%
    20:00 -3°C° 0 mm 4 m/S 745 mmHg 83%
    21:00 -3°C° 0 mm 4 m/S 745 mmHg 84%
    22:00 -3°C° 0 mm 4 m/S 745 mmHg 85%
    23:00 -3°C° 0 mm 4 m/S 746 mmHg 86%

    25 November, Sonntag

    Zeit Temperatur Niederschläge Wind Luftdruck Luftfeuchtigkeit
    00:00 -2°C° 0 mm 3 m/S 746 mmHg 88%
    01:00 -2°C° 0 mm 3 m/S 746 mmHg 89%
    02:00 -3°C° 0 mm 2 m/S 746 mmHg 90%
    03:00 -3°C° 0 mm 2 m/S 746 mmHg 91%
    04:00 -3°C° 0 mm 2 m/S 746 mmHg 91%
    05:00 -3°C° 0 mm 2 m/S 747 mmHg 92%
    06:00 -3°C° 0 mm 2 m/S 747 mmHg 92%
    07:00 -3°C° 0 mm 2 m/S 747 mmHg 92%
    08:00 -4°C° 0 mm 2 m/S 747 mmHg 92%
    09:00 -3°C° 0 mm 2 m/S 747 mmHg 89%
    10:00 -3°C° 0 mm 2 m/S 747 mmHg 85%
    11:00 -2°C° 0 mm 2 m/S 747 mmHg 82%
    12:00 -2°C° 0 mm 2 m/S 747 mmHg 82%
    13:00 -2°C° 0 mm 2 m/S 747 mmHg 81%
    14:00 -2°C° 0 mm 2 m/S 747 mmHg 81%
    15:00 -3°C° 0 mm 2 m/S 747 mmHg 84%
    16:00 -4°C° 0 mm 2 m/S 747 mmHg 88%
    17:00 -5°C° 0 mm 2 m/S 747 mmHg 92%
    18:00 -5°C° 0 mm 2 m/S 747 mmHg 92%
    19:00 -5°C° 0 mm 2 m/S 747 mmHg 93%
    20:00 -4°C° 0 mm 1 m/S 747 mmHg 94%
    21:00 -4°C° 0 mm 1 m/S 747 mmHg 94%
    22:00 -4°C° 0 mm 1 m/S 747 mmHg 95%
    23:00 -4°C° 0 mm 1 m/S 747 mmHg 95%
    Mehr zeigen